Theta_e
326 324 325 325 324 321 320 314 301 306 305 297 295 295 295 306 305 304 303 306 301 307 309 309 311 309 305 303 298 297 299 297 298 294 292 303 308 310 312 312 312 323 323 324 327 329 331 336 336 335 334 332 331 330 329 328 329 329 329 328 329 328 326 326 327 329 330 331 330 328 328 327 328 327 327 326 325 326 326 324 323 324 327 327 327 328 328 327 326 325 324 324 323 321 321 320 318
326 322 323 324 320 318 312 314 301 297 296 295 298 296 297 304 304 301 301 304 304 305 306 305 304 307 308 305 302 301 297 298 300 302 306 309 308 309 310 311 312 318 322 323 327 329 327 329 336 334 334 332 331 330 329 328 328 328 328 328 328 326 325 327 328 330 329 330 329 328 326 325 327 327 326 326 325 324 324 325 323 325 325 326 327 327 328 327 327 325 323 323 322 321 321 320 318
324 317 317 321 318 315 314 311 296 293 295 294 296 297 301 301 299 301 304 307 309 306 304 304 305 305 305 303 298 297 291 301 299 299 304 306 301 302 307 310 312 312 323 324 327 327 327 329 337 334 333 332 331 330 329 328 327 327 326 327 328 326 324 326 329 330 328 328 328 328 327 325 327 328 326 324 324 323 323 325 323 324 326 326 327 327 328 328 327 324 324 323 322 321 321 319 318
323 319 314 314 309 315 306 305 294 292 292 290 289 295 300 301 301 304 306 308 307 303 303 302 300 304 300 295 297 298 294 296 300 299 299 300 300 303 305 307 309 309 321 325 327 327 327 331 338 335 334 332 331 330 328 328 327 326 326 326 326 327 326 326 326 328 328 329 327 327 325 325 327 328 326 324 324 323 324 323 323 323 324 325 325 327 327 328 326 324 325 324 323 322 321 319 318
315 319 318 313 308 304 305 300 294 293 292 289 289 296 299 300 302 303 302 301 299 299 301 301 297 299 299 296 298 290 290 296 300 300 299 300 303 302 303 307 306 305 315 323 326 326 327 333 337 338 334 331 331 330 329 328 327 326 327 326 327 326 326 325 326 329 328 329 327 327 326 325 326 326 325 324 324 324 324 324 323 322 323 325 326 327 328 328 327 326 325 324 323 322 321 319 319
313 315 317 315 306 308 302 295 293 292 296 296 294 297 299 298 299 299 301 301 301 299 298 296 294 294 291 293 296 290 295 291 297 299 298 298 301 302 303 306 306 308 308 318 322 323 325 334 336 336 333 331 331 330 329 328 327 327 326 325 326 326 325 326 325 326 329 329 327 327 327 326 324 324 324 324 323 323 324 324 324 323 323 324 326 327 328 328 326 325 324 325 324 322 321 319 318
313 309 308 309 307 306 294 290 291 292 296 299 298 296 297 296 297 297 299 300 300 299 298 297 294 294 290 292 294 295 296 296 296 296 298 299 301 302 304 306 307 308 310 309 317 319 324 334 336 336 333 331 330 329 328 328 327 327 326 325 325 325 324 325 326 326 325 325 327 327 325 326 325 324 323 323 323 322 323 324 324 323 322 324 324 327 327 327 326 325 324 325 325 323 321 320 317
316 307 302 298 295 299 292 291 292 291 292 292 295 293 294 296 296 294 293 295 294 296 296 297 297 295 294 296 289 294 295 296 296 298 300 301 302 303 303 303 302 302 304 312 319 317 320 334 335 334 331 330 329 328 328 327 327 326 326 325 325 325 325 324 325 327 325 325 326 326 326 325 325 324 323 324 323 322 322 322 323 322 322 322 323 326 327 326 325 325 324 325 325 324 321 320 317
311 310 302 298 294 292 290 291 292 295 291 290 292 296 301 295 295 293 291 293 293 292 290 292 292 292 291 290 288 294 293 296 296 299 300 301 301 302 302 300 300 299 301 302 308 315 321 331 335 330 330 330 329 328 327 326 326 326 325 325 324 324 325 324 325 325 326 325 324 325 325 325 324 323 323 324 323 322 322 322 321 321 322 322 322 324 325 325 326 324 324 325 325 324 322 319 319
305 305 295 294 291 291 285 287 290 291 288 290 290 293 294 295 294 293 291 292 291 292 292 291 291 291 292 289 289 291 292 295 296 297 299 300 300 301 300 299 299 299 299 300 301 303 307 312 320 323 327 328 326 327 326 326 325 325 325 325 325 324 324 324 324 324 325 324 324 325 324 324 324 324 323 323 323 322 322 322 320 320 321 321 322 323 323 324 325 324 323 325 325 324 323 321 318
296 299 298 293 288 286 287 285 287 289 289 289 291 293 293 294 293 290 291 291 291 291 291 291 290 289 288 288 288 294 294 294 294 293 297 298 299 299 298 298 298 298 297 298 299 300 302 304 311 315 318 321 327 326 327 325 325 325 324 324 324 323 324 324 324 324 324 324 323 324 324 324 324 324 324 323 323 322 322 322 320 319 320 320 322 322 323 324 324 324 323 323 324 324 323 321 319
295 295 295 287 285 286 285 286 287 286 288 287 292 292 292 293 292 289 290 290 289 288 289 289 289 291 287 288 287 290 292 292 292 294 297 298 297 298 298 297 297 297 297 297 297 297 299 301 301 307 311 316 317 325 327 326 329 326 324 324 324 323 323 324 323 324 324 323 323 323 323 324 324 324 323 323 323 322 321 321 320 319 320 321 321 322 322 324 324 324 324 323 323 324 324 322 319
297 293 287 287 284 286 284 285 284 286 284 286 290 293 293 291 290 289 289 287 286 287 288 290 289 290 284 286 289 289 289 290 292 294 296 296 296 296 296 296 295 295 295 297 295 295 297 299 299 300 306 309 312 314 315 326 328 328 326 324 324 324 324 324 323 323 323 324 323 323 323 324 326 326 323 323 322 322 321 320 320 319 320 320 321 321 322 323 323 324 323 322 322 323 322 321 319
296 294 290 287 285 286 286 285 284 285 284 288 289 293 293 290 290 289 287 286 286 286 290 291 290 289 286 286 286 285 287 290 291 293 294 295 294 294 294 294 294 293 294 294 294 294 294 296 297 298 299 301 302 308 313 313 314 324 328 326 327 326 325 324 324 323 323 324 324 326 327 326 326 327 326 324 322 322 322 321 320 320 320 320 321 321 321 321 323 323 322 322 322 321 322 322 320
297 294 288 287 284 284 286 285 284 281 284 287 290 291 289 291 290 290 288 285 286 289 290 292 290 289 282 283 283 284 287 289 290 293 293 293 293 293 293 293 293 293 292 292 293 293 293 293 295 296 297 299 301 303 304 306 312 316 317 325 327 327 327 326 325 323 323 325 326 325 323 323 323 326 326 325 322 323 324 323 321 319 319 319 320 320 321 321 322 322 322 322 322 321 321 322 321
296 289 287 286 282 284 283 285 283 282 285 288 289 290 289 289 290 289 289 288 287 289 289 286 290 286 286 284 284 287 287 289 290 290 291 290 291 291 291 291 291 292 292 292 292 292 292 292 293 294 295 296 298 301 301 303 308 309 312 314 316 320 323 325 326 326 326 324 323 322 320 318 319 319 326 322 325 324 323 322 321 320 320 319 319 319 319 321 322 322 321 321 321 321 320 321 320
294 289 284 280 281 283 283 284 284 283 285 285 287 290 287 287 290 289 291 290 286 285 286 286 287 289 286 286 287 287 288 292 293 289 289 289 289 289 289 290 290 290 291 291 291 291 292 292 292 292 293 294 296 298 299 301 303 306 307 309 311 314 316 316 319 322 322 320 319 318 316 313 313 311 314 313 322 318 319 321 321 320 320 318 319 320 319 320 321 321 321 321 320 320 320 320 320
288 286 281 281 280 282 284 285 285 288 285 286 286 287 287 285 287 288 289 287 285 285 285 285 287 286 288 288 287 287 288 288 288 288 287 287 288 287 287 288 288 288 289 290 291 291 291 291 291 292 292 293 294 295 297 299 299 302 301 302 305 308 311 314 313 312 314 312 317 315 309 309 311 311 310 314 311 312 315 318 320 321 319 318 318 319 319 319 320 321 321 321 320 320 320 315 316
288 282 283 280 279 286 287 286 286 285 286 285 287 286 286 286 286 288 285 283 283 282 283 283 283 284 286 286 286 287 287 287 287 287 286 286 286 286 286 287 287 288 288 289 290 291 291 291 291 291 292 292 293 294 295 296 296 297 298 300 301 305 306 308 309 311 312 311 310 311 310 308 308 309 310 312 312 314 312 318 318 320 320 319 319 319 319 319 319 320 321 320 319 319 316 310 311
288 286 281 280 283 287 286 288 289 289 287 286 286 287 285 287 287 288 286 282 283 280 280 281 281 282 283 284 285 286 286 286 286 286 286 286 286 286 286 286 287 287 288 288 289 290 290 290 290 291 291 291 291 293 294 294 294 294 295 297 298 299 301 303 305 307 310 312 312 311 311 310 308 309 311 312 312 311 312 317 317 318 319 319 318 318 318 319 321 320 320 321 319 310 306 308 308
289 284 282 285 285 286 288 287 288 287 287 286 285 286 285 286 286 285 284 283 282 282 283 282 282 282 283 284 284 285 285 285 285 286 285 285 286 286 286 286 286 286 288 288 289 289 290 290 290 290 291 291 291 291 292 293 293 293 293 295 295 296 298 299 301 303 305 307 311 313 312 310 309 308 308 308 309 309 308 310 313 313 312 311 314 309 309 310 315 310 311 315 306 303 304 304 305
288 288 285 285 285 287 288 287 287 287 287 285 284 287 287 287 284 284 284 283 280 282 284 284 284 284 283 284 284 284 284 284 285 285 285 285 285 285 286 286 287 286 289 288 288 288 289 290 289 289 290 290 290 290 291 293 293 291 292 294 294 294 296 295 297 299 301 303 306 310 312 311 310 309 308 307 307 307 306 306 308 308 308 308 309 307 306 307 305 304 307 307 302 301 303 301 302
288 287 287 286 285 288 288 287 287 287 287 284 284 287 284 282 283 283 284 284 284 286 285 284 284 284 284 284 284 283 283 283 284 284 285 285 285 285 286 286 286 286 286 286 287 288 290 289 289 289 289 290 289 290 290 290 290 290 290 293 293 292 294 293 294 295 297 300 303 306 309 310 310 308 308 306 306 306 306 306 307 307 307 307 306 305 304 305 304 304 303 303 300 299 299 300 299
287 287 287 289 287 289 287 288 287 284 286 287 285 287 286 284 285 283 282 284 285 285 285 285 285 285 285 283 283 283 283 283 283 284 285 285 285 285 285 285 286 286 285 286 287 287 288 289 289 288 288 289 289 289 289 290 290 290 291 293 291 294 293 292 293 295 296 297 299 302 306 308 309 309 309 309 308 307 306 307 306 307 307 306 306 305 305 303 303 303 302 299 299 298 297 297 297
289 288 289 287 287 288 287 286 285 286 287 284 285 285 284 283 283 283 282 284 285 285 286 286 285 284 283 283 283 283 283 283 283 284 284 284 285 287 285 285 285 285 285 285 286 286 287 289 288 288 288 289 289 288 288 288 289 290 290 289 290 297 291 291 292 293 293 295 296 298 301 303 306 309 310 311 311 310 309 308 306 306 307 306 306 304 305 304 303 303 302 301 300 298 297 296 296
290 290 289 286 286 288 286 288 287 287 287 286 285 284 283 283 285 282 284 285 285 285 285 284 283 282 282 282 282 282 282 282 283 284 284 284 284 284 284 284 285 284 285 285 285 285 287 287 287 287 288 289 290 288 288 288 288 289 289 290 289 295 289 291 292 291 292 293 293 296 297 300 302 305 308 310 310 309 308 308 308 307 306 307 305 304 304 304 303 302 302 301 300 299 297 296 296
292 291 289 286 285 287 287 287 287 286 287 285 286 282 283 284 285 279 283 285 285 285 283 282 282 282 282 282 282 282 282 282 282 282 283 283 283 282 283 283 283 284 284 284 284 285 287 286 286 286 287 289 289 288 288 289 288 288 289 289 289 290 290 292 291 291 291 292 293 293 295 297 298 301 305 308 309 309 309 309 308 308 308 307 307 305 305 304 304 303 302 302 300 299 298 297 296
291 290 289 287 286 286 286 287 286 286 287 285 285 282 282 283 282 280 283 285 285 283 282 281 281 281 282 282 282 282 282 282 282 282 282 281 282 282 282 282 283 284 284 284 284 285 285 285 285 286 286 287 289 287 288 288 288 288 289 289 289 289 291 289 289 290 292 292 292 293 293 294 296 297 300 303 306 308 308 308 309 308 308 308 307 306 305 304 304 303 303 302 301 300 299 296 295
291 289 287 285 281 286 285 285 285 287 286 285 282 282 281 281 280 282 284 286 284 283 282 281 281 281 281 281 281 281 282 282 281 281 282 282 282 283 282 283 283 282 283 284 284 284 284 285 286 285 286 286 286 286 286 287 287 287 287 288 289 291 290 289 288 289 290 291 292 292 292 292 294 295 296 298 300 304 307 308 308 308 309 308 308 307 306 305 304 304 302 302 300 299 298 296 295
287 285 285 281 279 277 283 286 285 287 287 285 286 279 277 280 284 282 284 284 283 282 281 281 280 280 280 280 281 281 281 281 281 281 281 281 282 282 282 282 286 282 285 283 282 283 285 285 286 286 286 285 287 286 287 286 286 286 288 287 289 289 288 287 289 288 289 290 290 290 291 291 292 293 294 296 297 299 302 305 307 308 309 308 307 307 306 305 304 303 302 300 300 299 298 297 295
282 283 281 277 278 275 281 285 284 284 286 285 288 278 281 280 281 282 283 284 283 282 281 280 280 280 280 280 280 280 281 281 281 281 281 282 281 282 282 283 282 283 284 283 282 283 283 284 286 285 286 284 284 284 285 285 286 285 286 286 287 288 288 288 287 287 288 289 289 289 290 290 291 292 292 293 295 296 297 300 304 307 308 308 308 307 306 305 304 303 302 300 300 299 299 298 296
279 277 273 274 275 276 282 286 283 282 286 285 285 278 279 280 281 282 284 283 283 281 281 280 280 280 279 279 280 280 280 281 281 281 282 282 282 282 283 283 283 283 283 283 283 283 282 283 285 283 283 282 283 284 284 284 284 284 285 289 287 287 287 287 286 287 287 287 287 287 288 289 290 290 291 292 292 293 295 296 298 302 306 308 307 307 306 304 304 303 303 302 300 299 299 297 297
276 276 271 273 275 276 281 282 282 285 282 283 283 278 280 281 280 282 283 283 282 281 279 279 280 279 280 279 280 280 280 280 281 282 282 282 282 282 282 283 282 282 282 283 282 282 282 282 283 282 282 283 283 282 282 283 283 284 284 285 286 286 287 286 286 287 286 286 286 287 287 289 289 289 290 291 291 291 293 294 296 297 300 303 306 305 305 304 304 303 303 303 302 300 299 298 296
272 275 274 276 275 277 278 283 281 281 282 279 282 279 279 283 281 281 282 283 281 280 279 279 279 279 280 279 279 279 280 280 280 280 281 281 281 281 282 284 282 281 282 282 282 281 281 281 281 283 284 283 282 283 283 283 283 284 284 284 287 286 286 286 286 286 285 286 286 286 287 288 289 289 289 290 290 290 291 292 293 295 297 299 301 304 304 304 304 303 302 302 302 300 298 298 297
273 275 274 276 275 277 278 277 281 281 281 279 280 277 279 281 282 280 283 283 281 279 280 279 279 279 279 279 279 279 280 279 280 280 280 281 280 281 281 281 281 281 281 280 281 281 280 281 282 281 284 282 282 282 283 283 283 283 283 283 284 285 286 286 285 284 285 285 285 286 287 288 288 288 288 289 288 289 289 290 291 293 294 296 298 300 302 303 302 302 302 302 302 301 300 299 299
276 276 276 275 274 276 279 282 282 280 279 279 277 277 279 281 282 280 281 281 280 279 279 279 279 279 279 279 279 279 279 279 279 280 280 280 280 280 280 280 280 280 281 280 282 280 280 281 280 282 282 282 282 282 282 282 282 282 282 283 283 284 284 285 285 284 285 284 286 286 286 286 287 288 288 287 287 288 288 289 290 291 293 295 295 296 298 300 300 300 300 301 300 300 301 300 299
277 277 276 277 276 276 277 279 280 281 280 277 279 279 277 280 281 281 280 280 279 279 278 278 278 278 278 278 279 279 279 278 279 279 279 279 280 280 280 280 280 280 280 280 280 280 280 281 281 281 282 282 282 282 282 282 281 282 281 281 282 283 283 285 285 285 285 284 285 285 285 286 286 286 287 287 287 288 288 289 289 290 291 293 294 295 296 297 299 300 300 300 299 299 299 299 298
277 276 275 275 275 275 279 280 280 281 279 279 280 277 278 280 279 279 280 280 278 278 278 278 278 278 278 277 277 277 277 279 278 278 279 279 279 280 279 280 281 279 280 280 280 280 281 281 281 282 282 281 281 282 282 282 282 282 281 281 282 282 282 281 282 283 284 285 285 285 285 285 286 286 287 287 287 287 288 288 289 289 289 291 292 294 295 295 296 297 298 297 297 297 297 299 298
275 275 273 272 276 278 280 279 280 282 280 278 279 276 278 278 277 278 278 278 278 279 279 278 278 277 277 276 276 276 276 276 277 277 278 279 279 280 280 280 280 280 279 279 280 280 281 281 282 282 281 281 281 283 284 283 283 283 283 283 283 283 284 284 284 285 285 285 284 284 284 285 285 285 286 286 286 288 288 288 289 288 289 291 290 289 291 293 295 295 296 296 296 295 295 295 295
276 274 273 272 276 275 274 279 280 281 279 277 278 276 277 278 278 278 279 279 278 279 279 278 278 277 276 276 275 275 275 276 277 278 278 279 279 279 280 280 280 280 280 280 280 280 281 282 281 281 281 281 281 282 285 283 283 284 284 284 284 284 283 286 285 284 283 283 282 283 283 284 284 284 285 285 286 286 287 288 289 289 289 291 290 288 288 290 292 294 295 296 296 294 294 293 293
276 277 274 274 276 277 276 277 279 280 279 278 277 275 274 275 275 276 278 279 279 278 278 278 277 277 276 277 277 277 276 277 277 278 278 279 278 279 279 280 280 279 280 280 280 280 281 280 281 280 280 281 281 284 282 283 283 282 282 283 283 283 283 282 280 280 281 282 283 282 282 283 283 284 285 285 286 286 286 288 289 290 290 290 290 290 289 289 291 293 294 294 294 294 293 293 292
274 275 277 277 277 277 278 278 277 275 273 278 277 268 269 273 274 274 276 277 276 276 276 276 276 276 276 276 277 278 279 279 278 278 278 278 278 278 279 279 279 279 279 280 280 280 280 280 280 280 281 281 282 282 282 282 282 281 280 280 279 280 279 280 280 280 281 281 282 283 283 283 284 284 284 284 285 286 286 287 287 288 289 289 289 289 288 288 289 291 292 293 293 294 294 291 290
272 275 277 278 277 277 277 276 275 268 267 275 278 268 264 273 273 274 274 274 275 275 276 275 275 275 276 276 277 278 278 278 278 278 278 278 278 278 278 278 278 278 279 279 279 279 280 279 279 280 280 281 282 282 282 283 281 281 280 280 280 279 279 280 281 282 281 282 282 282 283 283 283 283 284 284 284 285 285 285 285 286 288 289 289 289 287 287 288 290 291 292 293 294 294 291 290
273 276 278 278 277 276 276 275 275 272 276 277 276 273 266 266 272 273 274 273 273 274 274 274 274 275 275 276 277 277 277 277 277 277 277 278 278 277 277 277 277 278 278 279 279 279 279 279 280 281 281 282 282 282 281 282 281 281 280 280 281 280 279 279 280 280 281 282 282 282 282 282 283 283 283 284 284 284 285 285 285 285 286 287 288 288 287 287 288 290 291 292 293 293 292 292 290
276 278 279 277 277 277 277 274 272 273 273 269 272 274 268 267 271 272 274 272 272 273 272 272 273 274 275 275 276 277 277 277 277 277 277 277 277 277 277 277 277 278 278 278 278 279 279 279 280 281 281 281 281 280 282 281 281 281 279 279 277 278 278 278 279 279 279 279 279 280 280 281 282 283 283 284 284 284 285 285 284 284 284 285 286 287 286 287 287 288 289 290 291 291 292 292 292
276 278 278 278 277 276 276 272 272 270 270 262 270 273 265 267 271 273 274 272 271 271 271 272 272 273 273 274 275 276 277 277 277 277 276 276 277 277 277 277 277 277 278 279 279 279 279 279 280 281 280 280 280 280 280 280 279 280 277 277 276 276 278 278 278 277 277 277 277 277 279 280 281 282 283 283 284 284 284 284 285 285 285 285 286 286 286 286 286 287 288 290 290 290 291 291 291
279 277 277 277 275 274 273 273 271 266 261 264 271 272 270 262 270 272 272 272 270 270 271 271 273 273 273 274 275 276 276 276 276 276 276 276 276 276 276 276 276 277 278 278 278 278 279 279 280 279 280 280 280 279 279 279 278 277 277 278 277 277 277 277 276 275 276 275 275 276 277 278 280 281 282 282 283 284 284 285 285 286 286 287 286 285 285 285 286 286 287 289 289 290 290 290 291
278 275 273 275 272 272 269 270 265 261 261 265 271 271 272 261 266 272 272 271 270 270 268 270 271 272 273 274 275 275 275 275 275 275 275 275 275 275 276 275 276 276 277 277 278 278 279 279 279 279 279 279 279 279 278 278 278 278 279 278 278 277 276 276 275 274 274 274 274 274 275 276 277 279 280 281 282 283 284 285 286 285 284 284 284 284 285 285 286 286 286 287 288 290 290 290 290
277 274 274 270 265 266 263 267 264 262 264 269 271 272 268 267 269 273 272 272 271 270 272 271 271 272 273 273 273 274 274 274 274 274 274 274 274 274 274 275 275 275 276 277 277 277 277 278 278 277 277 278 278 277 277 278 279 279 278 278 277 277 276 275 274 273 274 273 273 273 274 275 276 277 278 279 280 281 283 283 284 284 283 284 285 285 285 285 285 285 286 286 288 288 289 289 288
275 274 268 265 262 259 260 261 259 260 269 271 271 271 267 270 271 275 273 273 272 272 272 272 273 272 273 273 273 274 274 274 273 273 273 273 273 274 274 274 275 275 275 276 276 276 276 276 276 276 276 276 277 277 278 278 279 279 278 278 277 276 275 274 273 273 273 273 274 273 274 275 276 276 277 277 279 281 282 282 283 283 284 284 285 285 285 285 285 284 284 285 286 287 289 289 288
274 275 271 265 265 260 260 257 257 263 265 270 271 264 255 263 269 275 274 273 273 274 274 274 273 272 272 273 273 273 272 273 273 273 273 273 273 273 274 274 274 274 274 275 275 275 275 275 275 275 275 276 276 277 277 277 278 278 278 277 276 276 274 273 273 274 273 273 273 274 275 277 276 275 275 276 278 280 281 282 282 283 283 283 283 284 284 285 284 284 284 284 285 286 288 288 288
275 275 274 267 264 269 263 262 259 264 265 264 263 263 267 270 275 276 273 273 273 274 273 273 272 272 272 272 272 272 272 272 272 272 272 273 273 273 274 273 273 273 274 274 274 274 274 275 275 275 275 275 275 275 275 276 277 278 277 276 275 275 275 274 273 273 273 273 274 275 276 275 274 275 275 276 278 280 281 282 282 283 283 283 284 284 284 284 284 283 283 283 283 285 285 287 287
273 273 267 271 275 273 262 267 270 267 263 263 264 267 272 272 273 272 272 272 272 272 272 271 271 272 271 271 271 271 271 271 272 272 272 273 273 273 273 273 273 273 273 273 273 274 274 274 274 274 274 274 274 275 276 277 277 276 276 275 274 273 273 272 272 272 272 274 276 275 274 274 274 274 275 277 278 280 281 281 282 282 282 283 283 283 283 283 283 283 283 284 283 284 284 285 286
272 265 272 278 276 273 265 261 260 260 259 264 269 267 268 267 263 272 271 270 271 271 271 271 271 271 270 270 270 271 271 271 272 272 272 273 273 273 272 273 273 273 273 273 273 274 274 274 274 273 274 273 273 274 275 276 276 275 275 274 274 273 272 272 272 272 273 274 275 274 273 273 273 274 276 277 279 279 281 282 282 282 282 282 283 283 284 284 283 283 283 283 284 283 283 284 285
277 273 275 272 262 263 267 262 262 261 261 263 267 269 268 267 267 269 269 269 269 270 270 270 269 269 269 270 270 271 271 271 271 271 272 272 272 272 272 272 273 273 273 273 273 274 274 273 274 274 273 273 273 273 273 274 275 274 274 273 272 272 272 272 272 272 273 273 272 272 272 272 273 274 275 278 280 280 281 281 281 281 281 282 282 283 284 283 283 282 282 282 283 284 284 284 285
278 277 275 275 272 266 266 265 267 266 263 263 264 267 264 270 268 269 268 270 269 270 270 268 269 269 269 269 270 270 270 271 271 271 272 272 272 272 272 272 272 272 272 273 273 273 273 273 273 273 273 272 272 272 272 272 272 272 272 271 271 272 272 271 271 272 272 272 271 271 271 272 273 274 278 279 279 280 281 280 280 281 281 281 281 282 282 282 282 282 282 281 282 283 283 283 283
270 271 267 269 267 275 273 267 265 265 263 263 263 261 265 269 272 270 270 270 270 270 268 268 269 269 270 270 270 270 270 271 271 272 272 272 272 272 272 272 273 273 273 273 272 272 272 272 272 272 271 271 271 270 270 270 271 270 271 270 270 270 269 270 271 272 271 271 271 272 272 273 275 276 276 276 278 279 280 280 280 280 281 281 281 281 281 281 281 281 281 281 282 282 283 283 283
273 273 269 271 268 267 263 264 270 263 261 262 261 261 267 271 273 271 270 271 270 269 269 268 269 270 270 270 270 270 270 271 271 272 272 272 272 272 272 273 273 272 272 271 272 271 271 271 271 270 270 269 268 268 269 269 270 269 268 268 268 269 269 270 270 270 270 270 271 271 272 273 273 273 275 275 277 278 279 280 280 281 281 281 281 280 281 281 281 280 281 281 281 281 281 281 282
Wind_Speed
2 1 1 1 0 1 2 2 0 1 0 4 2 1 4 0 1 2 2 2 0 2 4 0 1 3 0 3 14 10 3 3 1 2 2 1 4 6 10 10 8 2 1 3 5 4 4 7 10 13 12 11 10 9 9 9 8 8 9 9 9 9 9 8 9 9 11 11 11 10 10 10 10 9 10 9 9 9 10 9 9 11 12 11 12 10 11 11 11 10 10 9 8 7 7 7 7
1 1 2 2 1 1 1 1 2 1 1 2 6 1 4 2 2 4 5 7 4 2 4 3 1 3 6 13 12 7 8 5 3 2 3 1 6 4 10 10 6 1 2 3 4 4 4 5 10 13 13 12 12 10 10 9 9 8 8 9 9 8 8 10 10 10 11 12 11 10 9 10 11 11 11 10 10 10 9 9 10 10 10 11 11 12 11 11 11 10 10 8 9 9 8 8 8
2 3 4 3 2 1 0 1 0 1 3 4 5 6 0 3 4 4 8 9 8 2 4 2 2 3 3 4 4 4 3 3 9 9 0 4 10 10 13 12 5 6 5 3 4 4 4 6 10 13 12 13 12 11 11 10 9 9 9 8 9 8 9 9 10 11 9 10 10 11 9 8 10 11 11 10 10 8 8 10 10 10 12 13 12 12 11 12 13 10 11 10 9 9 10 9 10
2 2 3 1 0 1 2 1 2 4 2 4 4 4 3 4 5 8 7 6 3 2 1 1 3 3 3 7 1 4 5 3 2 4 3 8 4 10 11 10 7 6 2 4 4 5 5 8 8 11 10 12 12 10 10 10 9 9 9 8 9 11 9 11 10 9 10 11 10 9 9 9 11 11 11 10 10 10 10 9 10 11 11 11 12 13 13 14 12 12 12 11 12 12 10 9 8
1 1 2 1 3 1 2 3 2 3 5 4 2 3 3 3 5 4 3 2 3 1 1 1 4 3 4 4 3 3 3 5 4 7 3 6 10 12 11 9 7 5 3 4 5 5 5 10 10 10 11 12 13 12 12 10 9 9 9 8 9 9 10 10 10 11 11 12 11 11 10 10 10 12 11 10 11 11 11 10 12 11 11 13 13 13 13 13 14 13 13 11 11 12 11 9 10
4 2 2 1 1 2 3 1 1 4 3 3 0 2 1 2 1 1 2 4 2 3 1 5 2 2 4 3 2 4 3 3 5 3 6 9 14 13 11 7 7 8 8 2 3 5 5 9 11 12 12 12 12 11 10 10 9 9 8 9 10 10 9 9 10 11 13 13 11 10 12 10 9 10 10 10 11 10 12 12 12 10 11 13 13 13 15 14 14 12 13 14 13 14 13 11 11
1 2 1 1 2 1 4 2 5 2 5 3 4 2 3 1 1 5 3 2 3 4 5 3 7 7 6 1 3 4 5 3 2 5 6 10 11 10 10 11 10 14 12 6 2 3 5 9 11 11 13 11 12 11 10 10 9 10 8 9 9 9 8 10 12 12 10 11 11 13 12 12 11 10 10 11 10 11 11 12 12 11 11 14 14 14 12 14 14 15 13 15 15 14 14 13 10
1 1 1 2 1 1 2 3 3 2 2 1 1 1 2 2 2 3 2 3 1 1 3 2 1 5 0 4 4 1 5 6 5 7 6 8 11 13 14 13 14 14 15 12 9 4 6 8 9 9 9 7 8 7 8 8 8 8 8 9 7 8 12 9 12 14 12 12 13 12 11 12 12 12 10 10 10 11 10 12 13 11 12 13 14 11 13 14 12 11 14 15 14 15 15 15 12
1 1 1 3 1 1 1 4 3 2 0 2 1 2 1 1 2 4 4 1 1 1 2 4 4 2 2 4 4 1 2 10 9 5 9 13 12 10 12 16 14 13 16 14 13 13 9 7 2 1 4 7 6 6 7 7 7 7 8 7 8 8 11 9 11 13 13 12 9 9 11 11 11 11 11 12 12 12 11 13 12 10 12 13 14 13 14 13 12 14 13 15 15 15 14 14 14
1 1 1 2 2 3 2 5 0 2 2 1 1 1 0 1 3 5 6 3 1 1 0 6 1 4 3 4 2 4 7 10 7 12 14 13 11 12 15 15 15 15 16 15 14 12 12 19 24 20 13 6 7 8 5 6 6 6 7 8 8 8 10 10 9 11 12 12 11 11 11 12 10 11 12 13 13 12 13 14 12 12 13 12 13 14 13 14 12 13 12 14 15 15 16 15 15
2 2 2 0 1 2 5 3 2 0 0 2 2 3 2 1 5 3 0 3 0 0 3 9 4 3 4 2 3 2 5 8 13 11 10 11 11 13 12 14 14 15 15 17 14 14 14 14 18 22 25 24 7 6 5 8 7 5 6 7 8 8 9 10 10 12 12 12 9 11 11 11 12 12 13 13 12 12 13 12 13 13 13 13 14 14 14 13 12 14 13 14 16 14 15 14 16
1 0 1 2 2 4 4 1 2 1 2 3 0 2 1 4 5 4 0 4 3 3 4 8 1 1 3 2 2 4 6 12 9 7 8 9 10 10 11 11 15 15 15 15 15 15 15 13 13 18 23 21 26 19 4 3 6 2 3 7 8 8 8 10 11 11 12 12 12 13 12 11 13 12 12 14 13 13 12 12 13 13 12 14 15 14 15 15 14 15 15 15 14 15 16 16 18
1 1 4 2 3 1 2 1 4 1 2 1 1 2 3 3 2 7 3 4 5 2 4 7 4 1 1 2 1 4 11 11 9 7 8 9 8 8 9 12 13 15 15 15 16 16 16 14 14 14 17 24 19 23 26 16 5 5 2 3 7 8 9 10 10 10 12 13 14 12 10 10 10 11 14 14 13 13 14 14 14 14 15 14 15 15 16 17 15 16 16 15 15 16 16 13 17
2 3 4 3 0 0 0 0 0 1 1 1 1 2 4 3 0 3 4 6 5 1 2 3 1 2 2 2 3 6 6 7 7 6 4 7 8 10 12 10 12 14 14 15 15 14 14 14 14 13 15 14 14 15 17 23 26 15 0 0 4 4 6 9 11 11 12 13 13 12 10 8 8 10 8 11 14 13 13 13 14 15 14 16 16 16 15 16 16 15 16 15 15 15 16 15 15
1 1 3 1 1 1 1 1 3 3 2 1 3 2 4 4 2 2 4 6 2 3 3 2 1 1 2 3 1 2 3 5 6 4 4 5 9 11 11 11 12 12 13 15 14 14 14 13 13 12 14 13 14 11 11 15 23 25 24 12 5 5 4 6 8 11 12 10 11 9 10 12 9 7 9 11 15 14 13 13 15 14 13 15 17 16 16 17 16 16 15 16 16 15 14 18 18
2 4 2 0 1 0 3 1 2 5 2 0 4 5 9 4 2 1 2 3 2 3 2 1 5 3 3 7 3 1 3 4 5 3 4 8 7 9 10 11 10 11 11 13 12 12 12 14 12 12 12 13 11 10 12 12 16 22 22 23 21 19 12 6 5 7 8 9 10 8 6 8 9 5 7 7 12 13 12 11 13 17 16 17 17 16 16 16 18 17 15 16 16 16 15 15 16
3 5 0 2 2 1 2 0 3 0 1 2 2 1 2 0 1 3 1 1 7 2 5 2 3 3 5 4 4 3 4 3 5 5 10 10 8 9 10 10 9 11 10 11 10 10 11 12 14 11 12 13 12 11 11 11 13 17 13 18 21 20 19 20 18 11 7 6 8 7 5 4 5 4 4 4 9 8 7 12 14 17 16 16 18 18 18 17 18 17 17 16 16 16 12 13 12
2 1 4 1 4 2 2 2 3 1 2 2 2 1 9 4 4 4 4 9 6 4 8 4 7 6 5 4 4 4 4 7 7 11 11 10 9 9 10 9 10 10 9 9 10 11 11 10 12 12 11 13 12 10 8 8 9 11 12 12 11 12 14 14 13 11 11 8 7 7 3 3 4 5 4 5 4 5 6 12 13 15 15 16 19 18 16 19 18 18 18 18 17 13 12 7 11
1 2 2 4 4 2 2 3 3 2 1 3 2 2 5 3 7 4 4 2 4 6 3 3 7 5 6 7 6 8 7 9 10 11 13 13 11 12 9 8 10 10 11 9 9 11 9 9 10 12 12 12 12 12 9 9 12 11 12 11 9 12 12 12 10 10 9 8 10 9 6 3 3 4 5 5 5 7 6 12 14 15 15 16 18 17 14 16 18 19 18 17 16 16 8 6 8
1 2 1 3 4 1 1 2 1 1 5 3 2 0 1 1 1 1 2 4 1 6 6 2 4 5 5 4 7 6 8 9 10 11 12 11 9 9 9 10 10 9 8 8 7 7 9 10 10 10 11 12 11 9 9 9 10 9 8 8 8 9 10 10 11 11 10 9 9 7 9 7 4 4 6 8 8 5 6 10 14 16 16 16 17 13 13 14 16 17 16 14 14 3 6 7 8
1 3 2 2 3 2 1 0 1 1 3 2 3 0 2 1 1 2 6 6 1 2 4 5 7 7 5 5 6 6 8 9 10 11 11 11 9 8 7 7 6 6 5 5 7 9 9 9 9 9 10 10 11 10 9 9 8 8 9 9 9 8 8 8 9 9 10 11 10 8 7 6 7 6 4 5 6 5 4 4 6 8 7 7 11 6 7 6 7 6 6 7 6 6 7 7 8
2 0 1 2 2 1 2 3 5 1 2 6 1 1 1 1 3 3 8 4 6 6 3 6 8 7 7 7 5 6 7 8 8 9 9 9 9 8 7 5 5 5 5 8 9 9 9 8 7 7 7 8 9 9 9 8 7 8 8 8 9 9 10 10 8 8 9 10 9 9 8 7 6 7 6 5 6 6 6 5 6 6 6 7 6 6 7 7 5 4 6 3 5 6 8 8 8
2 1 1 1 3 1 1 1 2 3 2 4 2 2 2 1 1 1 2 2 1 3 7 7 7 7 6 6 6 7 7 8 8 8 7 8 8 8 8 6 7 8 7 7 6 7 8 8 8 7 7 7 8 7 8 8 8 6 5 6 7 8 6 8 10 10 9 8 9 9 9 9 7 4 6 7 6 6 7 7 6 6 7 7 7 7 7 7 7 6 5 4 6 6 7 8 9
4 1 0 0 1 1 4 2 1 2 8 3 3 3 1 2 1 1 2 0 5 6 8 8 8 7 8 8 6 7 6 7 6 6 5 6 6 6 6 7 6 4 6 7 7 7 8 11 9 8 7 7 6 6 7 8 8 8 7 7 6 5 6 7 7 8 9 10 8 7 8 8 7 7 7 6 6 8 7 7 7 7 8 8 7 7 8 7 7 6 5 3 6 6 8 8 8
2 1 1 1 0 0 2 1 2 1 1 3 6 4 3 5 2 3 3 5 6 7 8 8 8 9 8 9 8 7 7 6 7 5 5 5 5 6 6 6 5 6 6 7 6 7 8 9 10 11 8 7 7 6 6 6 7 7 7 7 7 6 6 5 6 7 7 8 10 9 7 8 8 7 7 7 6 6 6 7 7 7 8 8 8 9 9 9 8 7 7 6 6 7 7 8 8
0 1 1 1 1 2 1 0 0 1 2 3 4 2 1 3 3 1 8 7 7 8 9 9 9 10 9 8 8 8 7 6 5 6 4 4 5 6 6 6 5 7 6 5 7 6 6 8 9 11 10 10 8 7 8 7 8 8 8 7 7 6 6 6 6 6 6 7 8 10 11 8 7 8 8 7 7 7 6 7 8 7 8 8 8 10 9 9 10 8 7 7 7 8 9 9 9
1 1 0 1 3 1 2 1 3 1 1 4 5 3 0 1 2 5 4 9 7 9 9 6 10 9 8 7 7 7 8 7 6 4 5 4 4 6 5 6 6 6 5 6 6 6 6 8 8 9 9 9 7 7 8 8 8 9 9 8 7 7 6 5 4 5 6 7 7 9 10 10 9 8 8 9 7 7 7 7 7 6 8 8 8 9 9 11 10 10 10 9 8 8 9 8 9
1 0 0 4 8 1 1 2 7 1 2 6 3 1 0 1 1 7 10 9 9 11 9 7 8 8 8 8 7 6 7 5 5 6 6 5 5 4 4 4 5 6 7 7 6 5 8 8 8 8 8 8 7 7 8 8 9 9 10 9 9 7 5 5 5 5 5 6 8 9 9 9 10 10 9 9 9 9 8 7 8 7 7 8 8 10 9 10 11 11 11 10 9 8 7 7 8
1 2 0 4 9 2 2 3 3 2 3 5 5 3 0 2 6 8 9 10 9 10 9 7 8 8 7 7 7 6 6 6 5 5 4 4 2 3 4 2 4 4 5 4 5 5 6 6 8 10 9 7 8 9 9 8 9 9 9 9 9 8 7 5 4 4 4 5 6 8 9 10 8 9 10 10 10 9 9 9 8 7 8 8 8 9 10 10 11 11 11 10 9 8 8 8 7
2 6 1 5 8 3 4 5 2 0 3 6 3 9 5 9 12 3 7 10 8 8 8 7 7 7 7 6 7 5 5 6 5 4 4 4 4 3 4 3 4 6 6 6 5 6 5 5 7 8 7 8 8 8 8 8 9 8 8 9 9 9 8 7 4 3 2 3 4 6 8 9 10 9 8 10 9 9 9 9 9 9 7 8 9 8 7 7 8 11 12 11 10 11 11 10 9
3 4 6 2 7 3 4 5 6 3 1 2 1 7 14 4 8 3 6 11 14 11 9 8 8 7 7 6 6 5 4 5 5 4 4 5 5 5 5 7 8 9 9 9 8 7 7 8 9 8 8 8 8 8 9 9 8 8 8 8 9 9 8 7 5 2 1 2 3 4 7 9 11 11 8 7 8 8 9 9 9 9 9 8 7 7 9 9 6 8 9 10 11 11 12 11 12
5 4 5 4 1 7 12 6 3 1 3 4 2 9 10 6 6 4 6 7 10 10 7 9 8 8 7 6 6 6 4 3 3 4 5 5 6 7 8 9 9 9 9 8 7 6 7 7 8 7 7 7 7 8 7 8 8 8 8 8 8 9 8 7 6 3 1 1 2 4 6 8 10 10 9 7 6 7 8 8 8 9 10 9 8 8 8 8 8 9 9 10 10 12 12 11 11
6 5 5 6 3 6 10 2 5 3 5 1 2 8 11 5 2 3 5 9 8 7 7 8 9 9 7 6 5 4 4 4 7 8 6 6 6 6 7 7 8 7 7 8 7 6 6 7 6 5 6 6 6 7 7 6 7 8 7 8 9 9 8 7 6 4 2 2 3 5 5 7 9 10 9 7 6 6 6 7 8 9 9 9 9 8 8 8 10 11 12 11 10 12 14 15 12
4 3 2 2 4 5 6 10 2 6 7 7 1 2 7 12 2 6 6 6 7 6 7 8 9 7 7 6 5 5 6 7 7 5 6 6 6 7 8 6 6 5 6 7 6 6 6 5 5 5 6 6 6 7 6 6 7 8 7 7 7 8 8 7 7 5 3 3 3 4 5 7 9 11 10 7 6 7 5 6 7 8 8 8 9 8 9 9 8 9 11 11 10 8 9 11 13
6 8 6 8 1 4 8 5 5 11 2 4 9 4 9 11 8 5 10 6 5 7 8 9 10 9 6 5 5 5 6 7 5 4 6 6 7 5 6 5 6 5 5 6 5 6 4 5 5 4 5 6 6 6 6 7 7 7 7 8 7 6 6 8 7 6 4 3 4 4 5 6 8 11 11 9 7 7 6 6 7 7 6 8 8 8 8 9 9 8 10 11 11 12 10 13 14
4 5 6 5 5 5 7 8 5 5 11 9 3 8 14 15 15 4 5 4 9 9 10 10 9 8 6 5 5 6 5 6 4 6 6 6 5 6 6 4 5 4 6 5 5 6 5 6 5 5 6 6 5 5 6 6 6 7 8 7 7 7 7 6 6 6 5 5 5 5 5 7 7 9 10 10 7 7 7 7 6 6 6 6 8 8 8 7 8 10 10 11 11 11 12 10 10
3 1 2 7 5 6 6 7 5 6 8 3 8 11 5 12 9 11 1 10 11 12 11 9 7 7 6 6 6 6 7 6 4 5 5 6 6 6 6 5 7 7 7 6 8 7 6 8 8 9 8 6 6 6 7 6 7 8 6 7 8 8 7 5 5 6 6 5 5 5 5 7 8 8 9 10 9 8 7 6 6 5 5 5 6 8 8 9 8 8 8 8 10 11 11 10 10
3 2 1 7 5 9 7 11 3 3 6 15 13 5 6 8 10 10 8 12 11 12 11 9 9 7 7 8 8 8 4 2 5 8 9 7 8 8 7 7 8 11 10 8 9 9 8 8 8 9 8 7 7 7 7 7 7 8 8 7 6 6 7 6 6 6 6 5 5 5 6 6 7 8 8 8 9 9 8 7 5 5 4 4 5 6 7 8 9 9 7 7 4 6 7 9 10
3 2 3 3 8 8 11 9 1 4 8 14 10 4 8 7 8 10 11 11 8 8 10 8 9 9 8 8 6 5 6 6 5 5 7 8 9 9 9 10 10 8 8 8 9 8 8 7 7 9 7 6 6 7 7 7 7 8 9 8 8 7 6 7 7 7 6 6 6 6 6 6 7 7 8 9 8 9 9 7 7 6 4 4 4 5 5 7 8 9 8 7 7 5 5 1 2
3 6 4 5 5 6 17 12 0 7 2 7 9 9 2 7 10 12 9 11 9 9 10 8 8 11 9 6 4 4 4 6 8 9 11 10 10 11 11 12 12 10 9 9 9 10 9 9 11 8 6 5 5 6 7 8 10 10 10 9 8 7 7 8 8 7 6 6 7 7 5 6 7 7 6 8 9 9 10 8 7 6 5 4 4 4 4 6 7 8 8 8 7 9 5 5 4
5 1 3 4 7 7 4 13 14 10 7 2 5 5 3 3 6 8 7 8 12 6 8 9 8 6 4 4 4 4 5 7 9 11 12 12 13 13 13 12 11 11 10 10 10 10 8 10 10 6 5 5 5 7 8 8 9 9 9 9 8 8 6 5 5 5 6 5 6 5 7 6 6 7 7 7 9 10 9 9 7 6 6 5 4 5 5 5 6 7 7 8 8 9 8 6 5
6 3 2 5 6 12 15 13 9 8 7 2 6 5 3 3 5 6 4 6 7 3 9 8 7 6 7 9 8 7 6 5 9 11 12 12 13 14 13 13 12 11 12 10 9 9 8 10 6 5 4 5 6 6 7 8 8 8 8 8 9 8 9 8 8 9 9 8 8 7 6 7 8 7 7 7 8 10 10 9 8 7 7 7 5 6 5 4 4 6 7 7 9 8 9 7 7
4 5 1 4 7 10 14 14 6 5 1 5 4 3 5 1 4 3 4 6 5 3 7 7 6 7 8 9 9 9 8 7 9 10 11 14 15 16 14 13 12 12 12 11 10 9 10 8 4 5 5 5 6 5 7 7 8 8 8 8 7 7 8 8 7 8 8 8 6 7 7 6 6 8 8 7 8 9 9 9 9 9 9 7 6 6 5 6 6 6 6 6 7 8 8 9 8
4 2 2 6 10 13 15 10 2 7 2 3 3 1 3 4 2 3 4 7 4 6 7 7 6 8 9 9 10 9 7 7 10 11 13 13 14 13 13 12 12 13 13 13 11 9 10 7 5 6 6 7 6 6 6 7 8 8 7 6 6 6 6 9 10 9 9 10 10 9 8 8 9 9 10 10 9 8 9 10 10 10 9 8 6 6 7 6 5 5 6 7 7 6 8 9 7
6 5 3 6 8 11 15 6 5 5 1 5 6 4 3 3 1 2 3 7 3 4 6 5 5 7 7 9 9 8 9 7 10 11 13 15 15 14 13 12 13 14 14 13 11 10 9 6 6 7 9 8 7 6 8 9 8 5 5 4 5 5 6 7 8 8 9 10 12 11 11 11 10 10 10 10 9 9 9 10 10 8 7 7 7 6 6 6 7 6 6 6 7 7 7 8 8
5 4 3 4 6 4 11 4 4 3 1 6 2 2 2 10 2 5 1 4 3 4 5 5 4 7 7 8 7 7 9 8 9 11 12 13 13 12 11 11 12 14 13 12 11 10 10 7 9 12 12 9 7 8 10 11 5 4 4 4 6 6 5 7 7 9 9 9 11 12 11 10 9 9 8 9 11 11 11 11 10 10 10 7 5 7 8 7 6 6 7 7 7 8 6 7 8
5 3 7 8 4 4 4 0 1 3 0 6 3 1 3 6 3 6 5 2 3 2 1 2 1 3 4 5 7 8 10 10 11 12 12 12 10 11 12 12 14 15 13 13 11 11 10 10 12 13 13 11 10 10 12 11 4 3 5 7 7 7 9 9 9 10 9 9 10 13 12 11 10 10 9 10 10 11 11 11 10 9 8 8 7 5 7 7 7 6 7 7 8 8 7 8 8
3 4 3 12 4 2 2 2 5 1 6 4 1 3 7 6 4 3 5 6 5 5 5 6 8 7 8 7 7 7 9 10 10 10 11 11 12 14 13 14 16 16 14 14 13 14 13 13 13 15 15 13 12 13 15 11 4 5 8 8 8 8 9 7 9 9 9 10 12 12 11 11 10 10 10 9 10 10 11 11 10 7 6 6 7 6 7 7 8 7 6 6 7 8 8 8 8
8 4 7 10 8 8 9 6 11 7 9 5 5 9 8 3 6 8 9 8 4 4 4 4 4 5 6 7 7 9 9 12 11 10 11 13 16 17 13 14 15 12 13 15 16 15 14 14 15 16 15 14 15 16 17 8 7 10 8 7 7 7 7 8 8 9 9 11 10 11 11 10 9 10 9 11 11 12 9 7 6 7 7 6 7 7 7 8 8 8 7 7 7 9 8 9 8
7 6 3 6 6 5 9 6 3 5 7 3 3 4 6 4 2 4 11 5 4 4 5 4 6 6 9 10 9 12 10 8 10 14 16 17 17 15 11 12 12 12 15 17 17 18 16 13 13 14 16 15 15 16 14 10 12 10 10 7 6 6 6 6 7 9 10 10 11 11 10 10 9 9 10 12 12 12 8 9 10 11 10 9 8 10 10 9 8 7 7 8 8 9 9 10 9
3 3 2 2 2 2 11 1 6 10 12 10 3 3 4 6 1 6 8 5 6 4 4 3 4 4 6 6 6 8 12 14 14 13 14 16 16 13 10 13 14 13 15 15 13 15 14 13 13 15 17 16 14 15 17 19 15 11 9 6 6 6 6 7 8 9 11 13 12 12 11 8 8 10 12 13 15 15 12 10 10 10 10 9 9 9 10 10 8 7 6 8 8 7 9 9 9
1 2 4 6 5 4 7 7 4 7 11 11 1 3 5 4 6 8 4 5 4 3 3 2 8 10 12 13 14 13 14 14 13 13 14 15 14 8 11 14 14 13 14 12 14 16 16 14 14 15 15 16 15 18 18 17 19 10 5 8 8 8 8 8 9 9 11 12 12 10 9 9 10 11 12 13 15 14 13 11 10 11 10 10 10 10 9 9 8 8 7 7 8 6 7 9 8
3 3 3 6 3 5 3 5 5 3 2 8 3 5 4 2 2 4 2 1 6 9 13 12 11 11 11 11 13 12 12 11 12 13 13 16 9 7 12 13 13 13 12 12 15 16 15 14 16 18 16 13 17 17 15 15 9 7 9 8 9 10 11 11 11 13 14 13 9 8 9 9 11 12 12 12 14 13 12 10 10 11 10 10 10 10 9 9 9 8 8 8 8 7 7 9 8
3 3 5 7 3 4 4 6 4 2 4 9 4 11 8 4 8 1 11 15 13 12 9 9 7 9 13 11 10 11 10 11 12 12 14 12 6 11 13 13 13 13 13 12 15 15 13 14 15 15 14 17 16 17 17 16 13 10 9 10 10 11 11 12 12 14 14 12 8 7 8 11 14 15 14 13 14 14 13 13 11 10 10 10 10 9 9 9 8 8 8 8 8 6 6 6 7
3 2 1 7 6 8 4 1 11 9 9 9 10 12 9 5 7 8 11 11 11 9 7 8 11 13 11 10 10 9 9 10 10 11 13 8 8 11 14 14 13 12 11 13 14 13 13 13 15 14 16 16 15 13 14 14 13 10 9 12 11 11 12 14 13 15 16 11 8 10 11 13 15 16 14 14 14 14 12 11 10 9 9 10 9 9 9 8 8 8 8 8 8 7 6 8 8
1 3 6 1 1 5 9 3 6 4 13 10 15 10 10 0 1 4 7 8 8 9 8 10 11 11 10 10 11 10 11 11 10 11 12 8 10 13 14 14 13 12 12 12 14 13 14 14 14 14 15 15 16 14 15 15 14 11 13 14 13 12 12 12 14 14 9 9 11 12 15 14 15 15 12 11 12 13 12 11 10 9 9 8 8 7 7 8 8 8 8 7 7 7 7 8 8
5 7 4 5 2 4 4 1 2 6 9 8 11 15 0 3 2 1 5 6 7 15 13 9 10 10 11 11 12 12 12 12 12 13 12 9 11 13 14 12 11 11 11 12 12 13 14 13 14 14 16 18 18 17 18 17 14 14 14 14 12 14 15 14 16 10 11 14 12 13 13 14 12 10 10 11 13 12 12 10 11 10 9 9 9 9 8 8 8 8 8 8 7 7 8 8 7
4 6 4 5 8 8 7 10 1 2 2 9 9 15 10 4 4 3 5 8 15 11 10 10 11 13 13 12 12 12 13 13 14 14 11 10 11 13 12 11 10 11 11 12 13 13 14 13 12 13 14 17 20 19 14 13 12 12 14 15 16 14 14 14 14 12 13 10 10 11 13 13 13 12 11 13 13 11 10 10 10 9 9 9 8 8 8 7 8 8 8 7 7 7 8 8 7
Wind_Direction
284 21 112 135 60 97 78 358 348 312 95 239 298 231 250 250 188 100 219 19 341 239 213 17 76 63 167 116 120 130 38 95 269 180 204 264 298 315 343 349 342 43 313 158 174 186 195 191 192 176 179 178 185 192 192 198 196 190 192 194 213 204 164 182 192 204 182 184 178 186 177 170 183 194 188 201 181 195 205 202 199 203 198 191 193 181 183 171 166 167 157 163 151 153 148 158 157
342 27 72 117 349 71 239 132 92 359 30 290 246 126 247 221 92 187 193 188 203 196 198 156 155 115 76 119 139 98 32 49 349 357 158 291 328 326 335 338 342 285 190 201 177 176 183 192 196 187 180 182 175 188 195 200 197 196 202 210 209 206 184 180 193 204 192 188 183 196 189 186 180 198 192 188 202 207 208 210 212 202 209 196 200 185 186 175 172 173 149 157 157 141 151 157 149
19 29 45 43 32 83 95 55 229 165 204 240 267 205 234 133 199 212 204 199 211 215 115 102 117 56 30 46 37 48 183 25 17 359 322 2 8 335 330 324 344 290 174 178 181 182 178 186 202 198 184 182 174 186 192 195 203 205 203 211 222 226 193 220 196 197 211 202 189 191 185 191 180 193 203 192 194 207 220 218 214 200 214 205 196 197 181 179 175 164 156 153 159 152 154 156 161
105 69 111 79 47 7 88 57 114 145 194 220 284 278 204 194 214 200 219 223 236 120 97 127 103 308 103 54 46 51 59 355 22 347 342 340 349 307 310 319 333 303 182 182 186 183 179 191 209 205 183 182 178 184 193 198 204 211 207 203 221 244 201 229 204 200 204 210 194 201 201 199 183 197 203 196 183 202 211 209 218 214 221 212 208 195 187 186 180 170 156 161 160 152 154 162 163
74 40 98 113 108 319 134 216 169 124 225 194 207 272 246 213 214 221 335 352 354 93 86 145 82 18 85 99 11 71 289 300 283 351 323 292 323 325 318 329 344 344 279 209 185 185 184 193 199 208 185 189 180 183 192 193 206 213 207 196 230 226 242 214 226 198 211 212 201 199 209 203 201 201 207 206 188 199 195 204 210 217 210 220 216 187 198 185 188 170 159 168 162 163 158 163 147
58 66 350 83 193 185 51 336 284 203 234 154 140 260 285 248 210 140 59 40 348 55 37 59 133 137 28 12 45 91 330 49 310 331 339 314 322 317 322 331 357 6 346 244 217 183 192 190 201 193 187 185 185 190 196 190 201 220 210 215 219 230 231 237 239 227 208 219 211 199 202 208 202 206 197 211 199 203 202 206 212 213 216 225 225 198 198 183 186 174 167 162 166 163 162 158 163
35 46 4 25 328 53 185 191 233 222 278 185 220 214 202 250 221 112 118 53 353 28 24 101 111 93 85 164 76 119 69 331 351 314 327 302 315 343 348 6 10 9 2 349 339 290 205 194 198 197 191 192 188 195 198 191 201 217 211 224 227 231 228 232 257 255 235 229 220 205 210 201 211 211 215 212 220 211 207 212 211 203 221 220 232 215 191 196 192 179 172 165 168 171 161 160 174
117 102 247 104 236 65 231 221 233 154 282 120 243 141 284 256 186 64 13 98 293 52 326 163 240 97 352 96 122 178 36 10 320 299 325 355 15 22 28 26 24 14 15 9 355 331 292 206 197 199 208 206 201 213 209 205 205 210 215 225 227 232 238 219 239 254 236 232 235 221 221 209 209 205 210 212 215 219 213 225 218 203 215 224 239 204 202 204 202 199 174 170 175 167 167 157 162
17 123 356 72 219 18 350 238 237 255 223 4 340 214 279 117 65 114 47 55 115 338 323 339 332 99 193 57 100 91 2 349 340 328 10 15 23 25 35 31 28 19 20 21 19 12 351 289 280 273 182 224 202 207 238 220 206 221 227 231 229 226 245 238 225 244 251 240 242 234 221 230 219 219 217 213 211 217 211 230 231 209 217 228 244 228 194 199 195 203 188 175 179 176 172 170 168
47 88 276 170 125 239 319 297 129 241 168 234 136 357 240 279 60 67 134 71 216 274 328 345 344 107 116 75 38 346 351 337 327 19 18 16 19 31 38 34 32 28 27 22 23 23 29 26 25 5 351 345 312 285 251 239 229 230 223 238 237 222 244 250 246 246 253 249 218 228 234 220 222 218 222 217 212 212 206 224 223 218 224 223 237 233 223 196 193 205 192 171 184 188 177 173 172
292 8 145 54 339 244 246 288 229 338 241 343 334 288 246 114 99 52 93 166 44 259 324 358 45 74 66 63 97 12 322 347 15 14 9 15 24 33 38 36 34 35 30 27 25 26 25 23 19 20 21 11 345 235 310 292 267 235 239 246 243 237 245 255 239 248 250 257 241 246 232 239 218 221 222 219 222 221 210 219 224 223 224 225 233 229 225 220 204 218 197 187 190 188 188 180 176
321 357 357 195 200 188 246 190 216 241 313 11 104 307 260 139 105 108 22 89 354 25 68 358 81 106 59 107 14 327 339 12 8 359 15 20 31 31 40 41 37 34 35 29 29 31 25 23 23 19 17 18 16 3 58 356 1 9 269 258 268 261 252 259 261 257 260 256 254 240 229 231 233 228 228 225 216 223 221 220 222 224 224 229 229 231 228 230 206 210 205 196 203 189 200 178 170
161 127 76 96 239 164 226 150 229 214 334 308 199 295 19 51 97 136 106 66 13 24 348 339 264 58 43 93 152 330 15 360 355 358 17 29 31 32 41 44 41 38 32 30 34 29 25 25 23 18 18 22 16 25 13 1 3 57 336 287 282 286 267 268 274 261 264 265 274 267 261 242 246 241 226 227 225 227 223 218 221 219 221 223 233 229 235 233 224 209 202 204 205 201 203 207 187
132 180 121 258 40 138 171 125 34 139 295 251 273 333 25 54 27 96 97 53 360 55 208 311 349 101 90 76 2 358 354 339 344 2 16 36 36 38 38 40 43 42 34 32 32 27 28 27 25 19 22 17 21 18 17 20 11 353 82 65 296 274 276 287 286 274 264 267 270 291 299 272 239 230 236 223 225 227 226 221 221 221 224 220 228 230 228 233 229 223 217 210 216 208 197 205 187
44 137 86 122 333 64 253 114 193 142 229 42 289 55 37 19 80 92 108 111 341 254 265 23 272 77 251 116 306 335 323 323 339 345 30 42 43 41 37 37 38 40 39 37 31 27 26 25 24 25 23 21 21 17 24 14 11 21 7 333 272 249 283 291 282 276 275 275 280 295 325 315 268 245 227 211 221 223 220 216 214 218 228 234 232 227 220 228 236 229 223 215 215 214 200 197 203
155 81 84 72 279 102 275 126 51 110 217 122 319 100 76 13 353 95 314 157 157 320 74 357 7 114 122 94 151 118 344 345 340 1 52 50 44 46 40 35 35 32 36 36 34 30 25 28 24 24 23 25 21 20 22 16 18 17 15 18 8 347 315 260 258 272 287 293 287 293 323 319 300 251 221 212 216 226 222 204 203 205 211 228 237 233 230 226 227 227 221 217 215 218 214 199 209
49 83 10 34 297 173 261 107 145 250 238 271 307 64 111 98 326 74 47 75 96 35 63 359 105 89 88 129 145 85 20 15 17 43 48 44 36 37 35 33 27 33 26 26 29 29 28 25 26 23 21 20 20 25 21 21 16 15 16 16 11 8 6 355 334 314 282 278 293 303 314 307 296 291 269 224 218 219 198 190 190 207 210 220 234 235 230 230 228 229 223 222 215 219 215 220 194
60 80 116 261 203 147 219 189 186 185 133 263 316 100 121 156 196 178 97 44 87 77 78 68 52 62 112 128 93 71 38 41 32 50 46 49 39 39 38 29 29 27 21 16 19 21 25 28 25 25 24 18 18 21 18 22 11 19 18 14 11 13 8 2 360 346 325 306 284 288 297 279 279 294 274 256 234 221 188 185 191 205 212 215 230 239 238 229 229 225 225 222 219 213 211 217 146
113 121 99 224 193 235 158 179 209 119 211 196 218 237 157 190 154 204 88 143 102 80 46 62 85 67 60 60 58 52 40 40 40 46 48 46 42 44 41 30 32 25 23 17 13 13 17 22 20 25 22 18 21 21 19 15 14 14 13 8 8 7 5 10 6 354 344 330 321 308 291 242 251 258 273 249 238 225 210 188 190 200 208 216 227 231 238 242 235 228 227 222 223 221 199 126 150
234 136 257 249 211 204 231 183 183 191 134 170 178 275 72 2 172 24 150 145 54 132 142 54 91 109 87 68 59 54 48 49 45 49 50 47 44 42 39 34 30 25 19 13 6 5 12 18 20 19 15 16 21 17 19 14 15 14 9 10 9 3 3 2 1 360 353 343 329 321 316 305 257 236 250 255 238 228 221 201 197 200 205 213 225 223 225 235 243 240 238 213 210 152 134 146 141
282 72 169 223 205 108 257 160 211 207 152 164 188 111 74 54 118 109 139 100 277 254 201 159 160 147 119 98 83 65 60 53 47 47 49 45 40 42 39 36 35 11 358 352 15 12 4 6 12 12 11 14 12 14 13 12 10 10 7 7 6 5 5 1 360 357 352 348 340 324 306 308 306 278 239 232 237 234 221 216 211 208 208 217 223 212 215 226 245 242 245 228 120 163 134 143 145
88 265 204 165 93 162 235 234 208 133 78 111 105 108 222 183 41 105 154 174 225 197 189 144 139 136 125 106 92 80 70 64 58 54 51 47 43 36 28 22 17 21 356 20 8 6 3 0 4 1 10 9 10 11 3 359 4 6 6 5 2 2 358 356 355 355 348 347 342 332 317 306 297 299 277 236 229 221 218 226 213 212 213 211 212 213 211 212 224 249 238 187 150 148 158 146 157
287 323 324 231 202 166 229 212 247 153 115 120 152 213 84 69 130 170 147 200 221 170 140 138 133 129 120 106 101 82 75 73 68 64 56 50 42 34 30 21 21 16 12 6 358 357 356 357 355 359 5 2 5 359 359 359 357 349 354 358 1 355 0 355 349 345 344 339 339 337 333 323 313 308 304 298 269 224 217 215 218 209 208 213 211 202 211 211 211 219 235 179 159 152 154 157 155
104 191 292 292 183 144 169 211 145 132 122 197 196 89 133 146 248 169 84 232 150 136 133 126 120 115 106 94 94 98 89 83 75 71 61 61 51 38 29 26 11 5 16 5 5 356 359 356 350 356 349 1 356 352 359 354 347 344 343 345 351 345 352 349 345 339 334 335 337 335 335 326 315 309 296 291 282 303 270 232 210 213 208 204 207 202 208 209 211 209 208 181 164 166 157 164 158
72 2 290 307 76 242 225 195 134 117 85 108 111 147 245 169 188 95 162 158 152 143 127 120 118 106 101 105 100 94 89 77 75 63 50 43 47 40 26 20 16 14 13 7 355 4 356 355 356 350 343 346 343 347 354 339 339 335 330 334 334 334 341 335 333 333 334 331 329 332 339 333 327 310 293 286 288 271 277 282 280 245 217 208 197 204 203 206 207 206 202 190 186 170 166 166 168
30 302 322 347 290 234 272 290 266 164 102 130 108 251 351 213 170 193 181 180 167 143 123 129 119 114 114 114 111 102 95 94 80 67 68 38 38 45 23 24 12 16 359 354 357 352 350 359 356 348 343 338 334 346 339 338 337 333 322 316 310 322 324 325 334 333 327 330 327 330 331 329 322 317 307 295 288 279 272 267 258 265 257 236 205 205 201 202 204 204 203 193 188 186 174 177 170
177 307 66 46 327 2 352 300 278 241 192 186 172 202 232 231 23 275 197 189 160 137 136 138 126 126 123 117 111 107 103 97 99 96 58 50 35 48 23 21 19 0 359 351 351 351 346 0 349 344 339 334 334 339 333 331 329 325 318 310 306 305 302 318 327 326 326 327 324 325 327 329 328 323 315 307 290 284 273 268 269 259 261 252 239 224 204 204 202 199 202 197 193 192 190 174 173
190 218 36 359 334 104 346 317 277 339 263 180 151 158 218 242 69 229 180 191 164 149 148 143 129 128 125 118 110 109 102 103 94 85 82 65 60 47 25 24 7 3 0 341 345 339 2 351 342 337 329 328 335 333 332 327 324 317 316 311 302 294 301 312 319 323 323 325 324 324 325 327 328 325 323 319 310 294 284 267 260 261 247 249 240 239 214 208 206 204 201 200 193 191 187 175 179
305 35 36 309 358 30 338 351 279 145 268 143 141 103 50 206 232 232 182 163 165 153 154 147 133 130 123 115 108 104 110 108 99 91 102 110 94 70 33 340 17 4 338 326 323 347 351 339 340 327 321 326 335 333 331 326 320 317 313 309 300 293 292 291 307 311 321 327 327 326 326 326 328 328 325 322 318 309 298 290 279 254 255 251 244 242 240 218 209 208 203 194 187 188 185 186 178
45 29 54 12 1 355 322 3 2 74 263 129 145 302 203 235 237 249 174 157 155 152 155 146 135 127 120 114 110 106 100 96 101 121 113 86 79 58 38 336 353 358 343 338 345 340 328 338 329 321 315 328 328 325 323 321 318 315 311 309 303 294 282 284 282 290 319 334 332 324 324 325 325 325 326 322 320 317 313 303 291 282 267 251 244 239 239 243 236 218 203 189 191 187 193 190 180
46 298 58 52 8 279 301 20 296 357 24 85 47 289 294 263 277 209 175 163 164 171 159 145 134 126 119 116 114 108 108 123 134 133 100 77 54 30 17 2 9 8 0 348 341 321 339 333 330 327 326 327 324 319 316 312 311 306 306 306 304 293 283 276 270 276 324 325 332 323 322 322 319 316 318 315 314 314 313 312 305 293 281 269 256 238 230 226 211 229 226 209 196 191 194 189 191
8 47 313 333 100 283 309 313 18 345 337 27 16 283 259 297 280 186 181 172 168 169 151 138 132 123 120 116 111 107 114 116 94 69 62 53 44 30 31 21 14 12 1 343 333 328 331 329 329 329 320 315 311 308 305 304 303 303 303 301 303 296 285 276 267 263 247 290 324 320 319 312 308 307 307 309 306 309 308 308 310 311 304 290 270 258 242 224 212 216 224 217 209 204 194 196 196
1 63 285 294 325 277 343 292 24 74 340 5 4 274 310 325 4 197 209 178 172 158 130 128 127 122 117 116 108 115 101 58 60 55 49 45 31 38 32 23 13 3 348 342 331 325 327 329 330 325 311 307 302 301 297 295 294 298 300 301 302 301 287 274 268 253 262 312 312 307 300 298 299 300 299 301 302 301 303 301 306 309 313 310 291 265 252 235 219 212 215 220 221 211 203 195 193
318 29 316 247 295 322 312 310 342 8 51 318 44 254 275 279 284 219 219 194 160 135 117 116 118 115 115 111 115 112 78 68 65 55 42 40 35 35 26 18 4 351 342 334 323 319 316 317 319 315 313 307 306 305 305 302 299 298 295 295 302 303 290 279 270 263 281 293 308 290 290 297 298 298 297 294 296 298 294 296 297 301 306 310 308 290 266 251 241 226 217 211 212 221 212 203 201
308 325 336 320 320 256 261 317 284 9 26 326 311 277 276 288 293 210 214 185 124 105 113 112 111 109 109 111 109 89 81 73 60 48 40 34 33 23 15 6 350 344 336 323 318 313 308 315 315 309 311 311 312 308 305 306 302 298 294 301 307 303 293 286 290 314 311 322 302 288 292 294 295 295 294 295 298 301 302 297 292 291 293 298 301 303 291 274 254 233 225 221 210 207 210 210 208
274 262 248 260 288 302 302 273 307 32 330 326 309 313 315 309 302 319 225 104 102 102 96 97 98 101 100 99 93 83 78 72 58 40 36 31 24 11 5 353 341 341 334 321 320 315 308 315 309 310 310 306 308 313 310 311 309 306 305 306 313 309 305 299 304 306 310 310 286 286 291 293 289 292 292 290 291 294 299 297 293 288 281 283 293 296 298 293 272 254 240 231 221 218 213 210 209
264 243 200 258 266 278 275 276 290 349 346 270 305 312 300 285 321 332 130 104 96 98 97 96 97 89 75 68 61 62 53 53 28 31 29 23 10 358 357 348 344 344 337 331 328 321 317 319 324 322 317 316 321 320 322 320 319 311 302 308 309 312 303 298 311 301 304 288 284 281 280 287 293 289 287 288 288 290 290 288 289 287 272 272 282 287 291 297 300 285 264 240 233 222 219 211 206
51 299 17 318 310 303 292 287 341 339 46 301 313 336 295 324 5 7 73 87 94 106 101 96 90 82 74 60 55 51 46 27 16 19 12 11 1 355 353 348 345 345 339 337 332 325 319 323 322 316 314 316 315 317 315 320 313 310 304 307 314 315 316 314 304 299 284 280 281 279 279 279 283 291 290 282 286 289 288 285 282 281 272 263 265 281 293 294 298 298 282 267 236 233 243 214 201
17 40 283 360 310 288 271 256 12 44 348 296 314 3 307 25 23 35 58 75 80 85 96 98 91 79 65 56 55 53 37 18 16 11 8 3 357 353 352 346 345 341 332 335 331 329 322 319 319 316 309 316 317 323 330 325 324 322 320 315 321 313 301 298 294 282 283 283 278 274 276 278 277 279 289 289 289 290 281 276 275 263 253 247 264 278 286 294 295 294 294 276 258 219 202 233 233
47 353 25 309 279 20 329 312 256 328 222 272 313 313 277 90 54 54 48 77 83 79 87 91 86 83 70 63 70 61 34 20 13 8 1 357 353 348 347 347 344 339 335 334 335 331 324 323 319 315 316 318 324 325 328 322 317 314 313 304 303 300 297 294 288 284 287 285 280 271 270 270 272 276 278 291 290 284 285 274 264 259 248 233 241 254 269 283 288 290 290 288 273 253 215 221 160
321 197 263 303 316 301 222 290 322 317 296 213 290 328 8 27 85 64 46 74 83 75 79 70 71 80 85 73 58 60 39 19 10 2 356 354 351 349 344 339 338 336 333 330 330 324 320 316 312 313 313 316 317 322 319 315 315 314 312 308 305 304 298 285 279 279 263 261 274 282 272 267 276 278 277 272 284 286 283 280 263 261 264 252 234 239 243 247 262 272 283 289 283 271 250 220 202
333 248 218 293 287 314 310 309 345 344 332 335 29 357 336 39 80 98 105 79 71 59 74 74 68 58 45 32 24 12 27 29 11 1 352 350 345 340 337 336 337 335 331 327 318 307 308 306 300 302 303 304 305 307 306 307 304 303 306 310 311 310 306 308 309 306 307 302 292 287 292 289 281 278 276 273 270 282 283 277 276 272 270 263 241 239 237 236 240 249 257 264 275 279 276 231 224
3 295 186 304 308 305 301 308 14 309 306 300 45 119 267 146 114 124 103 93 89 42 71 74 61 44 33 23 9 1 12 4 3 1 350 348 344 338 335 337 337 334 329 324 315 309 309 299 284 295 293 294 295 296 302 303 301 298 297 294 294 294 296 296 293 292 290 292 290 296 292 286 281 280 280 279 278 275 279 281 281 278 271 260 254 250 241 231 230 230 240 246 252 268 271 261 229
296 251 21 322 325 314 300 306 205 231 256 284 16 92 218 301 66 131 135 98 95 73 70 62 52 36 26 12 4 359 2 2 357 352 346 341 337 333 330 336 337 335 330 324 315 313 310 291 293 300 302 302 294 296 301 306 304 300 299 299 298 304 309 311 319 320 320 317 314 310 307 301 295 289 286 281 276 275 275 276 277 277 277 271 258 250 251 244 235 228 224 231 241 241 258 265 249
263 286 348 305 293 305 291 297 265 233 316 298 349 325 347 299 5 172 177 96 51 78 60 43 38 32 17 6 2 356 359 353 350 343 340 338 336 336 334 337 335 334 332 324 318 316 303 289 309 311 310 302 296 298 310 309 300 290 292 295 308 305 309 315 317 321 323 324 318 316 312 305 299 292 284 283 282 283 285 283 276 272 262 264 270 260 246 244 242 246 236 227 225 234 235 250 257
282 273 266 246 299 279 276 278 278 311 98 277 337 334 43 295 158 192 118 96 97 61 51 20 35 20 5 0 353 356 355 347 340 338 334 335 333 331 329 330 334 337 329 324 319 323 318 327 322 322 318 307 297 304 311 306 281 292 299 299 303 305 314 318 323 321 323 323 317 315 311 304 299 295 295 297 296 292 286 279 272 266 266 261 264 274 279 274 261 247 242 236 227 233 231 238 247
279 6 343 321 297 266 309 112 359 43 52 251 178 117 110 291 209 189 187 122 117 106 57 69 9 6 6 358 359 356 350 347 339 335 334 331 330 328 327 336 341 338 332 332 341 345 334 323 320 320 316 307 300 308 314 299 281 299 311 307 304 311 320 319 319 318 319 320 314 312 308 303 300 296 293 287 282 283 280 277 274 268 265 265 258 250 261 263 262 250 249 246 238 229 227 226 238
38 353 348 327 325 305 21 340 38 55 280 259 187 15 336 304 294 91 108 131 129 96 44 5 1 6 357 353 351 349 342 341 332 332 336 331 329 334 339 342 343 338 344 354 347 338 333 326 323 320 319 313 311 314 313 291 268 298 290 277 292 303 309 311 311 312 316 310 309 300 299 295 294 293 293 291 285 279 274 271 268 265 264 266 265 258 253 256 260 256 246 241 245 237 229 224 222
21 353 9 17 324 354 331 4 341 318 285 275 333 2 344 217 215 139 156 134 138 117 102 34 359 354 352 349 350 346 339 340 343 337 332 340 343 340 338 343 340 354 355 343 339 336 331 326 325 322 317 319 318 316 309 285 304 302 277 276 292 307 309 309 310 310 310 306 299 297 295 291 292 293 293 292 287 277 267 268 279 281 273 259 258 262 263 259 258 258 253 250 247 247 237 227 223
10 4 13 42 348 351 298 298 225 279 272 195 356 350 279 270 267 128 151 142 123 107 52 52 6 7 351 346 348 346 339 325 338 350 350 345 338 330 337 343 352 351 344 340 338 336 329 321 321 319 318 319 316 314 312 302 299 290 283 291 302 302 302 305 309 307 307 303 299 291 287 286 288 295 303 297 293 285 276 277 279 276 271 266 262 263 263 262 253 246 249 253 252 247 241 229 220
274 200 112 160 33 302 300 214 278 275 284 305 75 360 226 295 235 121 122 146 81 73 58 34 10 10 347 328 326 325 348 2 356 349 341 335 328 327 345 350 345 341 338 337 333 327 320 316 321 322 319 318 319 326 325 315 303 292 282 288 303 303 303 307 306 308 310 305 297 288 282 285 303 304 296 292 287 281 275 274 269 266 265 262 255 255 254 253 249 241 242 249 251 247 244 233 218
250 191 106 46 292 157 242 232 222 294 301 311 316 202 230 265 151 140 125 73 86 71 49 360 6 3 355 353 355 355 354 351 345 336 334 328 322 336 347 341 336 333 331 329 329 324 317 317 321 320 317 322 331 327 318 314 307 296 303 311 303 305 303 302 302 306 305 298 288 286 298 304 298 295 292 289 284 275 271 268 265 262 262 261 258 251 246 244 244 240 242 240 249 244 244 235 224
289 47 301 258 264 164 282 313 255 299 284 256 180 317 326 117 136 163 149 10 20 20 15 11 0 359 346 346 356 351 344 341 334 333 328 321 319 341 337 333 329 325 324 326 326 321 314 318 323 320 319 325 324 318 310 312 306 298 295 293 298 300 302 302 305 306 306 296 286 296 300 297 298 296 292 286 284 276 267 263 262 261 259 257 256 252 248 242 236 229 230 232 240 242 230 235 222
56 2 285 291 130 147 120 268 309 220 240 283 294 290 291 356 290 339 5 359 0 360 355 353 335 343 356 351 342 338 330 328 324 322 318 310 315 327 328 325 319 318 319 322 322 318 316 322 319 315 321 322 319 315 312 309 304 293 294 299 301 302 302 302 304 306 304 295 289 296 300 301 299 295 287 283 277 274 268 265 260 260 258 256 253 251 246 239 233 231 230 232 233 232 229 233 229
229 204 219 16 320 339 311 50 305 312 287 289 287 289 280 228 273 9 355 348 334 335 337 331 348 356 342 334 323 319 319 321 321 319 314 306 308 319 322 318 315 313 315 318 317 316 318 318 316 316 317 316 311 310 311 308 306 309 312 310 308 305 301 303 304 304 297 287 301 305 303 299 293 287 283 281 285 281 268 262 261 260 261 258 253 246 241 241 236 236 232 233 233 226 222 231 229
350 4 12 359 117 294 324 257 265 280 290 305 292 297 289 261 72 341 332 326 316 321 344 351 347 336 331 321 322 317 323 318 314 314 308 297 306 316 319 318 317 316 318 319 320 320 321 316 313 316 314 309 307 310 316 316 313 307 310 311 303 300 309 312 307 295 298 311 308 305 298 289 287 286 283 293 296 293 282 271 267 263 262 260 256 249 239 237 234 231 226 226 232 221 222 225 232
330 6 338 352 318 224 231 290 218 273 286 285 306 302 328 139 125 80 319 289 313 350 349 344 333 326 322 318 316 318 314 314 314 312 305 297 307 316 316 315 310 311 315 320 323 323 317 312 314 318 318 320 319 319 318 307 304 303 308 313 321 324 315 308 298 303 311 309 306 298 291 283 281 295 305 300 296 292 290 276 268 264 262 260 256 252 242 228 222 225 222 224 226 219 224 230 228
333 356 295 343 323 324 337 292 294 360 354 294 300 289 300 124 168 112 338 338 353 359 349 333 329 322 319 316 314 310 312 312 314 311 303 301 311 313 312 310 309 312 318 326 326 320 313 311 321 320 323 322 318 311 304 307 320 327 326 318 315 311 304 301 299 301 298 297 304 309 308 315 314 306 304 299 293 294 295 284 273 265 261 256 250 243 236 222 222 220 223 218 223 217 221 227 222